FW7227 Weather Reports


time (UTC)temp
C
wind
direction
speed
KPH
gust
KPH
rain 1hr
cm
rain 24hr
cm
rain mn
cm
humidity
%
barometer
mb
20260903121605 21 252 16.1 37.0 0.00 0.00 0.00 66 1014.9
20260903121057 22 243 19.3 37.0 0.00 0.00 0.00 65 1014.8
20260903120559 22 273 16.1 32.2 0.00 0.00 0.00 65 1014.7
20260903120107 21 258 14.5 35.4 0.00 0.00 0.00 66 1014.6
20260903115557 21 277 17.7 35.4 0.00 0.00 0.00 66 1014.8
20260903115058 21 239 22.5 35.4 0.00 0.00 0.00 65 1015.0
20260903114608 21 249 20.9 33.8 0.00 0.00 0.00 65 1015.0
20260903114056 21 251 14.5 29.0 0.00 0.00 0.00 65 1014.9
20260903113556 21 255 16.1 29.0 0.00 0.00 0.00 64 1014.7
20260903113103 21 186 16.1 29.0 0.00 0.00 0.00 65 1014.9
20260903112600 21 241 14.5 29.0 0.00 0.00 0.00 64 1015.1
20260903112057 21 250 9.7 30.6 0.00 0.00 0.00 65 1015.0
20260903111625 20 293 19.3 30.6 0.00 0.00 0.00 66 1014.9
20260903111059 20 231 14.5 25.7 0.00 0.00 0.00 66 1015.0
20260903110557 20 243 14.5 32.2 0.00 0.00 0.00 65 1015.0
20260903110113 21 253 17.7 32.2 0.00 0.00 0.00 64 1015.1
20260903105558 21 236 17.7 25.7 0.00 0.00 0.00 63 1015.1
20260903105056 20 249 16.1 32.2 0.00 0.00 0.00 65 1015.1
20260903104632 20 267 14.5 32.2 0.00 0.00 0.00 66 1015.2
20260903104057 20 220 16.1 32.2 0.00 0.00 0.00 64 1015.3
20260903103559 20 244 14.5 32.2 0.00 0.00 0.00 64 1015.4
20260903103105 21 245 17.7 33.8 0.00 0.00 0.00 63 1015.5
20260903102559 21 240 12.9 40.2 0.00 0.00 0.00 63 1015.5
20260903102056 21 246 22.5 41.8 0.00 0.00 0.00 63 1015.3
20260903101601 21 231 20.9 41.8 0.00 0.00 0.00 62 1015.3
20260903101057 22 215 20.9 38.6 0.00 0.00 0.00 61 1015.2
20260903100557 20 273 19.3 33.8 0.00 0.00 0.00 64 1015.3
20260903100059 20 250 19.3 33.8 0.00 0.00 0.00 64 1015.4
20260903095557 20 263 14.5 29.0 0.00 0.00 0.00 64 1015.5
20260903095056 20 244 14.5 32.2 0.00 0.00 0.00 65 1015.5
20260903094610 20 235 12.9 32.2 0.00 0.00 0.00 66 1015.7
20260903094057 20 236 17.7 32.2 0.00 0.00 0.00 65 1015.6
20260903093558 20 252 14.5 30.6 0.00 0.00 0.00 65 1015.6
20260903093104 20 230 6.4 30.6 0.00 0.00 0.00 66 1015.6
20260903092557 19 235 9.7 24.1 0.00 0.00 0.00 67 1015.6
20260903092058 19 242 9.7 25.7 0.00 0.00 0.00 67 1015.7
20260903091612 19 236 9.7 32.2 0.00 0.00 0.00 67 1015.7
20260903091100 19 243 16.1 32.2 0.00 0.00 0.00 66 1015.7
20260903090558 19 230 16.1 32.2 0.00 0.00 0.00 66 1015.7
20260903090059 19 214 8.0 25.7 0.00 0.00 0.00 68 1015.7
20260903085557 19 222 11.3 25.7 0.00 0.00 0.00 69 1015.8
20260903085100 19 250 14.5 25.7 0.00 0.00 0.00 68 1015.7
20260903084558 18 257 11.3 24.1 0.00 0.00 0.00 68 1015.8
20260903084057 18 252 11.3 20.9 0.00 0.00 0.00 68 1015.8
20260903083558 18 235 11.3 30.6 0.00 0.00 0.00 68 1015.9
20260903083106 18 249 14.5 30.6 0.00 0.00 0.00 68 1016.0
20260903082557 18 227 12.9 24.1 0.00 0.00 0.00 68 1016.0
20260903082057 18 240 4.8 24.1 0.00 0.00 0.00 69 1016.0
20260903081602 18 213 9.7 24.1 0.00 0.00 0.00 69 1016.0
20260903081058 18 229 11.3 24.1 0.00 0.00 0.00 70 1016.0
20260903080559 18 232 8.0 24.1 0.00 0.00 0.00 70 1016.1
20260903075601 18 232 9.7 19.3 0.00 0.00 0.00 70 1016.3
20260903075058 18 169 9.7 22.5 0.00 0.00 0.00 70 1016.2
20260903074607 18 190 9.7 22.5 0.00 0.00 0.00 70 1016.3
20260903074057 17 218 8.0 22.5 0.00 0.00 0.00 70 1016.3
20260903073557 17 183 11.3 22.5 0.00 0.00 0.00 71 1016.3
20260903073112 17 208 9.7 20.9 0.00 0.00 0.00 70 1016.4
20260903072600 17 230 9.7 20.9 0.00 0.00 0.00 71 1016.3
20260903072057 17 237 9.7 20.9 0.00 0.00 0.00 71 1016.5
20260903071609 17 225 8.0 24.1 0.00 0.00 0.00 72 1016.5
20260903071056 17 234 8.0 24.1 0.00 0.00 0.00 71 1016.7
20260903070559 17 175 9.7 24.1 0.00 0.00 0.00 72 1016.8
20260903070109 17 229 4.8 17.7 0.00 0.00 0.00 72 1016.9
20260903065557 17 191 9.7 17.7 0.00 0.00 0.00 73 1016.8
20260903065057 17 225 4.8 12.9 0.00 0.00 0.00 74 1016.7
20260903064607 17 214 6.4 16.1 0.00 0.00 0.00 74 1016.6
20260903064056 16 211 6.4 16.1 0.00 0.00 0.00 74 1016.7
20260903063556 16 246 6.4 14.5 0.00 0.00 0.00 74 1016.7
20260903063105 16 221 6.4 14.5 0.00 0.00 0.00 76 1016.5
20260903062556 16 217 4.8 14.5 0.00 0.00 0.00 76 1016.5
20260903062058 16 230 4.8 14.5 0.00 0.00 0.00 77 1016.7
20260903061613 16 230 4.8 14.5 0.00 0.00 0.00 77 1016.7
20260903061057 16 211 3.2 11.3 0.00 0.00 0.00 78 1016.8
20260903060557 16 0 1.6 8.0 0.00 0.00 0.00 79 1016.6
20260903060109 16 0 1.6 8.0 0.00 0.00 0.00 78 1016.8
20260903055558 16 176 3.2 9.7 0.00 0.00 0.00 79 1016.8
20260903055057 16 175 3.2 9.7 0.00 0.00 0.00 79 1016.8
20260903054607 16 184 3.2 9.7 0.00 0.00 0.00 79 1017.0
20260903054057 16 0 1.6 11.3 0.00 0.00 0.00 79 1017.1
20260903053558 16 190 3.2 19.3 0.00 0.00 0.00 79 1017.3
20260903053114 16 241 6.4 20.9 0.00 0.00 0.00 78 1017.5
20260903052557 16 244 9.7 20.9 0.00 0.00 0.00 78 1017.6
20260903052059 15 240 8.0 17.7 0.00 0.00 0.00 77 1017.7
20260903051559 15 221 4.8 12.9 0.00 0.00 0.00 78 1017.6
20260903051058 15 208 4.8 11.3 0.00 0.00 0.00 79 1017.5
20260903050557 15 220 4.8 11.3 0.00 0.00 0.00 79 1017.5
20260903050107 15 221 4.8 9.7 0.00 0.00 0.00 80 1017.5
20260903045558 15 217 4.8 11.3 0.00 0.00 0.00 80 1017.6
20260903045057 15 219 3.2 11.3 0.00 0.00 0.00 80 1017.5
20260903044608 15 205 4.8 11.3 0.00 0.00 0.00 80 1017.5
20260903044058 15 211 4.8 11.3 0.00 0.00 0.00 80 1017.6
20260903043556 15 202 3.2 11.3 0.00 0.00 0.00 80 1017.6
20260903043103 15 201 3.2 11.3 0.00 0.00 0.00 81 1017.6
20260903042557 15 204 3.2 11.3 0.00 0.00 0.00 81 1017.6
20260903042057 15 217 3.2 11.3 0.00 0.00 0.00 81 1017.7
20260903041600 15 217 3.2 9.7 0.00 0.00 0.00 81 1017.6
20260903041057 15 217 4.8 9.7 0.00 0.00 0.00 81 1017.7
20260903040558 15 214 3.2 11.3 0.00 0.00 0.00 81 1017.7
20260903040114 15 207 4.8 12.9 0.00 0.00 0.00 81 1017.7
20260903035557 15 216 4.8 12.9 0.00 0.00 0.00 80 1017.7
20260903035057 15 223 4.8 12.9 0.00 0.00 0.00 80 1017.7
20260903034603 15 195 3.2 12.9 0.00 0.00 0.00 80 1017.6
20260903034057 15 214 6.4 12.9 0.00 0.00 0.00 80 1017.7
20260903033557 15 203 4.8 14.5 0.00 0.00 0.00 81 1017.8
20260903033100 15 201 6.4 14.5 0.00 0.00 0.00 81 1017.8
20260903032558 15 215 6.4 11.3 0.00 0.00 0.00 81 1017.8
20260903032057 14 222 4.8 11.3 0.00 0.00 0.00 82 1017.8
20260903031624 14 209 4.8 9.7 0.00 0.00 0.00 82 1017.9
20260903031057 14 209 3.2 9.7 0.00 0.00 0.00 82 1017.9
20260903030557 14 217 3.2 9.7 0.00 0.00 0.00 83 1017.9
20260903030116 14 196 3.2 8.0 0.00 0.00 0.00 83 1018.0
20260903025557 14 197 3.2 8.0 0.00 0.00 0.00 82 1018.1
20260903025057 14 196 1.6 8.0 0.00 0.00 0.00 82 1018.1
20260903024602 14 196 1.6 4.8 0.00 0.00 0.00 81 1018.0
20260903024056 14 0 1.6 4.8 0.00 0.00 0.00 81 1018.0
20260903023556 14 196 1.6 4.8 0.00 0.00 0.00 81 1018.1
20260903023104 14 0 1.6 4.8 0.00 0.00 0.00 81 1018.1
20260903022600 14 0 0.0 4.8 0.00 0.00 0.00 81 1018.3
20260903022057 14 196 1.6 6.4 0.00 0.00 0.00 81 1018.3
20260903021603 15 0 1.6 6.4 0.00 0.00 0.00 81 1018.3
20260903021058 15 196 1.6 6.4 0.00 0.00 0.00 81 1018.3
20260903020557 15 198 1.6 4.8 0.00 0.00 0.00 81 1018.4
20260903020103 15 0 0.0 4.8 0.00 0.00 0.00 81 1018.5
20260903015557 15 0 0.0 4.8 0.00 0.00 0.00 81 1018.6
20260903015057 15 198 0.0 4.8 0.00 0.00 0.00 81 1018.5
20260903014611 15 198 0.0 4.8 0.00 0.00 0.00 81 1018.6
20260903014100 15 198 0.0 4.8 0.00 0.00 0.00 81 1018.6
20260903013600 15 0 0.0 4.8 0.00 0.00 0.00 81 1018.6
20260903013102 15 0 1.6 6.4 0.00 0.00 0.00 81 1018.6
20260903012557 15 198 0.0 6.4 0.00 0.00 0.00 81 1018.6
20260903012056 15 198 1.6 6.4 0.00 0.00 0.00 81 1018.7
20260903011622 15 197 1.6 6.4 0.00 0.00 0.00 81 1018.8
20260903011058 15 198 1.6 4.8 0.00 0.00 0.00 81 1018.8
20260903010557 15 198 1.6 6.4 0.00 0.00 0.00 81 1018.8
20260903010119 15 0 1.6 6.4 0.00 0.00 0.00 81 1018.8
20260903005557 15 200 1.6 4.8 0.00 0.00 0.00 81 1018.7
20260903005057 15 0 0.0 4.8 0.00 0.00 0.00 81 1018.8
20260903004601 15 0 0.0 0.0 0.00 0.00 0.00 81 1018.7
20260903004057 14 0 0.0 4.8 0.00 0.00 0.00 81 1018.8
20260903003616 14 0 0.0 6.4 0.00 0.00 0.00 81 1018.8
20260903003105 14 203 1.6 6.4 0.00 0.00 0.00 81 1018.9
20260903002557 14 0 1.6 8.0 0.00 0.00 0.00 81 1019.0
20260903002058 14 203 1.6 8.0 0.00 0.00 0.00 80 1019.0
20260903001606 14 203 1.6 8.0 0.00 0.00 0.00 81 1019.1
20260903001100 14 204 3.2 8.0 0.00 0.00 0.00 80 1019.1
20260903000558 14 205 1.6 8.0 0.00 0.00 0.00 80 1019.1
20260903000103 15 205 3.2 8.0 0.00 0.00 0.00 80 1019.1
20260902235557 15 205 1.6 6.4 0.00 0.00 0.00 80 1019.2
20260902235057 15 205 3.2 6.4 0.00 0.00 0.00 80 1019.1
20260902234605 15 206 3.2 8.0 0.00 0.00 0.00 80 1019.2
20260902234058 15 206 3.2 9.7 0.00 0.00 0.00 80 1019.2
20260902233558 15 206 3.2 9.7 0.00 0.00 0.00 80 1019.3
20260902233102 15 207 3.2 9.7 0.00 0.00 0.00 80 1019.3
20260902232558 15 200 3.2 8.0 0.00 0.00 0.00 79 1019.3
20260902232058 15 202 3.2 9.7 0.00 0.00 0.00 79 1019.3
20260902231611 15 206 3.2 9.7 0.00 0.00 0.00 79 1019.3
20260902231058 15 207 3.2 9.7 0.00 0.00 0.00 79 1019.4
20260902230602 15 208 3.2 9.7 0.00 0.00 0.00 79 1019.4
20260902230110 15 212 3.2 9.7 0.00 0.00 0.00 79 1019.4
20260902225557 15 214 3.2 9.7 0.00 0.00 0.00 79 1019.5
20260902225104 15 215 3.2 6.4 0.00 0.00 0.00 79 1019.5
20260902224608 15 215 0.0 6.4 0.00 0.00 0.00 79 1019.5
20260902224102 15 215 1.6 6.4 0.00 0.00 0.00 79 1019.5
20260902223558 15 216 1.6 6.4 0.00 0.00 0.00 79 1019.4
20260902223102 15 217 1.6 8.0 0.00 0.00 0.00 79 1019.5
20260902222558 15 214 1.6 8.0 0.00 0.00 0.00 79 1019.6
20260902222057 15 215 3.2 8.0 0.00 0.00 0.00 79 1019.6
20260902221628 15 223 1.6 8.0 0.00 0.00 0.00 79 1019.7
20260902221059 15 224 3.2 8.0 0.00 0.00 0.00 80 1019.6
20260902220558 15 263 1.6 6.4 0.00 0.00 0.00 80 1019.6
20260902220110 15 263 3.2 6.4 0.00 0.00 0.00 80 1019.5
20260902215558 15 263 3.2 6.4 0.00 0.00 0.00 79 1019.5
20260902215058 15 263 1.6 6.4 0.00 0.00 0.00 78 1019.5
20260902214609 15 0 1.6 6.4 0.00 0.00 0.00 77 1019.6
20260902214100 15 263 1.6 6.4 0.00 0.00 0.00 76 1019.6
20260902213558 15 263 1.6 6.4 0.00 0.00 0.00 76 1019.6
20260902213100 16 0 0.0 6.4 0.00 0.00 0.00 76 1019.5
20260902212558 16 263 0.0 4.8 0.00 0.00 0.00 75 1019.5
20260902212057 16 263 0.0 4.8 0.00 0.00 0.00 75 1019.5
20260902211558 16 0 3.2 4.8 0.00 0.00 0.00 74 1019.5
20260902211056 16 263 0.0 3.2 0.00 0.00 0.00 74 1019.5
20260902210600 16 263 1.6 4.8 0.00 0.00 0.00 73 1019.5
20260902210103 16 263 1.6 6.4 0.00 0.00 0.00 73 1019.5
20260902205601 16 263 1.6 6.4 0.00 0.00 0.00 73 1019.5
20260902205056 16 263 3.2 9.7 0.00 0.00 0.00 73 1019.5
20260902204604 16 263 3.2 9.7 0.00 0.00 0.00 73 1019.6
20260902204056 16 265 3.2 9.7 0.00 0.00 0.00 73 1019.6
20260902203556 16 269 3.2 9.7 0.00 0.00 0.00 72 1019.6
20260902203058 16 270 4.8 11.3 0.00 0.00 0.00 72 1019.5
20260902202557 16 263 4.8 11.3 0.00 0.00 0.00 72 1019.5
20260902202057 16 273 6.4 12.9 0.00 0.00 0.00 72 1019.5
20260902201606 16 255 6.4 12.9 0.00 0.00 0.00 73 1019.5
20260902201056 15 265 6.4 12.9 0.00 0.00 0.00 74 1019.5
20260902200557 15 256 6.4 11.3 0.00 0.00 0.00 75 1019.6
20260902200105 15 259 4.8 11.3 0.00 0.00 0.00 74 1019.5
20260902195557 15 247 4.8 11.3 0.00 0.00 0.00 74 1019.4
20260902195056 15 248 4.8 11.3 0.00 0.00 0.00 74 1019.3
20260902194605 15 242 3.2 8.0 0.00 0.00 0.00 74 1019.3
20260902194056 16 240 3.2 8.0 0.00 0.00 0.00 75 1019.3
20260902193557 16 239 3.2 11.3 0.00 0.00 0.00 74 1019.3
20260902193108 16 236 4.8 11.3 0.00 0.00 0.00 74 1019.3
20260902192559 16 233 3.2 8.0 0.00 0.00 0.00 74 1019.2
20260902192056 16 230 3.2 8.0 0.00 0.00 0.00 74 1019.3
20260902191634 16 230 4.8 8.0 0.00 0.00 0.00 74 1019.2
20260902191059 16 230 3.2 6.4 0.00 0.00 0.00 73 1019.2
20260902190558 16 232 3.2 6.4 0.00 0.00 0.00 73 1019.1
20260902185558 16 236 1.6 6.4 0.00 0.00 0.00 74 1019.1
20260902185101 16 236 3.2 6.4 0.00 0.00 0.00 73 1019.1
20260902184558 16 236 3.2 6.4 0.00 0.00 0.00 73 1018.9
20260902184056 16 236 3.2 6.4 0.00 0.00 0.00 72 1018.9
20260902183559 17 236 3.2 6.4 0.00 0.00 0.00 71 1018.9
20260902183127 17 237 3.2 8.0 0.00 0.00 0.00 70 1018.8
20260902182555 17 237 3.2 8.0 0.00 0.00 0.00 69 1018.8
20260902182056 17 238 3.2 8.0 0.00 0.00 0.00 68 1018.7
20260902181612 17 241 4.8 8.0 0.00 0.00 0.00 67 1018.7
20260902181055 18 246 4.8 8.0 0.00 0.00 0.00 66 1018.7
20260902180556 18 248 3.2 8.0 0.00 0.00 0.00 66 1018.7
20260902180104 18 248 3.2 8.0 0.00 0.00 0.00 65 1018.7
20260902175557 18 248 3.2 8.0 0.00 0.00 0.00 64 1018.7
20260902175057 18 248 3.2 6.4 0.00 0.00 0.00 63 1018.7
20260902174611 19 248 3.2 8.0 0.00 0.00 0.00 61 1018.6
20260902174057 19 248 3.2 12.9 0.00 0.00 0.00 60 1018.6
20260902173558 19 248 4.8 12.9 0.00 0.00 0.00 60 1018.5
20260902173113 19 252 6.4 14.5 0.00 0.00 0.00 59 1018.6
20260902172558 20 265 6.4 16.1 0.00 0.00 0.00 59 1018.6
20260902172058 20 252 6.4 16.1 0.00 0.00 0.00 59 1018.6
20260902171619 20 270 6.4 17.7 0.00 0.00 0.00 58 1018.5
20260902171058 20 244 8.0 17.7 0.00 0.00 0.00 57 1018.5
20260902170557 20 276 8.0 16.1 0.00 0.00 0.00 57 1018.5
20260902170103 20 256 6.4 20.9 0.00 0.00 0.00 57 1018.5
20260902165558 20 265 8.0 20.9 0.00 0.00 0.00 56 1018.5
20260902165058 20 261 9.7 16.1 0.00 0.00 0.00 56 1018.4
20260902164611 20 264 4.8 16.1 0.00 0.00 0.00 56 1018.4
20260902164057 20 267 8.0 22.5 0.00 0.00 0.00 55 1018.5
20260902163557 21 242 8.0 22.5 0.00 0.00 0.00 54 1018.4
20260902163106 21 271 9.7 22.5 0.00 0.00 0.00 54 1018.5
20260902162557 21 256 9.7 17.7 0.00 0.00 0.00 53 1018.4
20260902162058 21 274 9.7 17.7 0.00 0.00 0.00 55 1018.5
20260902161606 21 257 6.4 16.1 0.00 0.00 0.00 53 1018.5
20260902161057 21 260 6.4 17.7 0.00 0.00 0.00 53 1018.5
20260902160557 21 284 9.7 17.7 0.00 0.00 0.00 53 1018.5
20260902160116 21 267 8.0 20.9 0.00 0.00 0.00 53 1018.5
20260902155557 21 236 8.0 20.9 0.00 0.00 0.00 54 1018.5
20260902155057 21 246 11.3 20.9 0.00 0.00 0.00 53 1018.5
20260902154609 21 260 12.9 22.5 0.00 0.00 0.00 52 1018.5
20260902154103 21 243 11.3 22.5 0.00 0.00 0.00 52 1018.5
20260902153557 22 270 8.0 17.7 0.00 0.00 0.00 53 1018.5
20260902153101 22 243 3.2 22.5 0.00 0.00 0.00 53 1018.5
20260902152557 22 246 11.3 22.5 0.00 0.00 0.00 53 1018.6
20260902152059 22 246 11.3 22.5 0.00 0.00 0.00 53 1018.6
20260902151601 22 259 12.9 19.3 0.00 0.00 0.00 52 1018.6
20260902151057 22 279 6.4 14.5 0.00 0.00 0.00 53 1018.6
20260902150556 22 249 6.4 14.5 0.00 0.00 0.00 55 1018.7
20260902150109 21 288 3.2 14.5 0.00 0.00 0.00 56 1018.7
20260902145621 21 339 8.0 14.5 0.00 0.00 0.00 55 1018.7
20260902145057 21 284 6.4 14.5 0.00 0.00 0.00 56 1018.7
20260902144605 21 269 4.8 12.9 0.00 0.00 0.00 57 1018.8
20260902144057 21 263 6.4 14.5 0.00 0.00 0.00 58 1018.9
20260902143558 21 261 3.2 14.5 0.00 0.00 0.00 59 1018.9
20260902143109 21 282 1.6 16.1 0.00 0.00 0.00 61 1018.9
20260902142557 21 296 6.4 17.7 0.00 0.00 0.00 60 1019.0
20260902142057 21 332 9.7 17.7 0.00 0.00 0.00 60 1019.0
20260902141602 21 352 3.2 12.9 0.00 0.00 0.00 62 1019.1
20260902141057 21 302 4.8 14.5 0.00 0.00 0.00 62 1019.0
20260902140558 21 309 4.8 14.5 0.00 0.00 0.00 62 1019.0
20260902140100 21 340 3.2 14.5 0.00 0.00 0.00 61 1018.9
20260902135556 21 0 3.2 14.5 0.00 0.00 0.00 63 1019.0
20260902135057 21 254 6.4 16.1 0.00 0.00 0.00 62 1019.1
20260902134606 21 261 8.0 19.3 0.00 0.00 0.00 61 1018.9
20260902134057 21 257 11.3 19.3 0.00 0.00 0.00 61 1019.0
20260902133557 21 247 6.4 17.7 0.00 0.00 0.00 62 1019.0
20260902133108 21 291 6.4 17.7 0.00 0.00 0.00 64 1019.1
20260902132558 21 252 4.8 16.1 0.00 0.00 0.00 63 1019.2
20260902132057 21 0 6.4 16.1 0.00 0.00 0.00 64 1019.2
20260902131602 21 279 8.0 19.3 0.00 0.00 0.00 63 1019.2
20260902131058 21 224 4.8 19.3 0.00 0.00 0.00 64 1019.2
20260902130556 21 235 9.7 17.7 0.00 0.00 0.00 63 1019.2
20260902130105 21 239 8.0 17.7 0.00 0.00 0.00 66 1019.2
20260902125556 20 215 9.7 17.7 0.00 0.00 0.00 66 1019.4
20260902125100 20 247 8.0 19.3 0.00 0.00 0.00 69 1019.4
20260902124604 20 229 12.9 20.9 0.00 0.00 0.00 68 1019.5
20260902124100 20 222 12.9 20.9 0.00 0.00 0.00 67 1019.6
20260902123557 21 236 6.4 16.1 0.00 0.00 0.00 68 1019.5
20260902123107 20 360 6.4 17.7 0.00 0.00 0.00 68 1019.5
20260902122559 20 232 9.7 17.7 0.00 0.00 0.00 68 1019.5
20260902122056 20 252 11.3 19.3 0.00 0.00 0.00 68 1019.5